Location: Bourg-d�Oueil
(42.8588°N, 0.4991°E)
Time: 14:06:24
(UTC+00:00)

Cosmos 1536 Rocket - Pass Details

Date: 16 June 2021
Orbit: 604 x 633 km, 82.5° (Epoch: 31 July)

Event Time Altitude Azimuth Distance (km) Brightness Sun altitude
Exits shadow 22:35:22 29° 224° (SW) 1,153 4.7 -21.0°
Maximum altitude 22:37:15 48° 282° (WNW) 827 4.3 -21.1°
Drops below altitude 10° 22:41:35 10° 357° (N) 2,017 7.2 -21.4°
Sets 22:43:54 0° 3° (N) 2,925 8.2 -21.5°
